Location: Kruen
(47.5000°N, 11.5000°E)
Time: 12:56:56
(UTC+01:00)

BlueWalker 3 - Visible Passes

Search period start: 17 February 2026 00:00
Search period end: 27 February 2026 00:00
Orbit: 451 x 461 km, 53.2° (Epoch: 16 February)

Date Brightness Start Highest point End Pass type
(mag) Time Alt. Az. Time Alt. Az. Time Alt. Az.
21 Feb 4.8 06:27:49 10° SSE 06:29:50 14° SE 06:31:51 10° E visible
22 Feb 5.0 05:53:03 10° SE 05:54:06 11° SE 05:55:09 10° ESE visible
24 Feb 3.1 06:15:53 10° SSW 06:19:15 39° SE 06:22:37 10° ENE visible
25 Feb 3.4 05:40:12 10° SSW 05:43:24 31° SE 05:46:36 10° ENE visible
26 Feb 3.7 05:05:47 17° S 05:07:34 24° SE 05:10:32 10° E visible
